Weather History for Burlington, CO

Change the Weather History Date:

Friday, June 14, 2013

  Actual Average Record
Temperature  
Mean Temperature 78 °F 68 °F  
Max Temperature 93 °F 82 °F 103 °F (2006)
Min Temperature 62 °F 54 °F 37 °F (1969)
Cooling Degree Days 12    
Growing Degree Days 27 (Base 50)    
Moisture  
Dew Point 49 °F    
Average Humidity 43    
Maximum Humidity 76    
Minimum Humidity 20    
Precipitation  
Precipitation T in 0.09 in 0.68 in (1919)
Month to date precipitation 0.52 1.37  
Year to date precipitation 6.12 7.10  
Sea Level Pressure  
Sea Level Pressure 29.81 in    
Wind  
Wind Speed 15 mph (SSW)    
Max Wind Speed 41 mph    
Max Gust Speed 56 mph    
Visibility 9 miles    
Events Rain    
T = Trace of Precipitation, MM = Missing Value Source: NWS Daily Summary

Daily Weather History Graph

Daily Weather History Graph

Search for Another Location

Airport:

Trip Planner

Search our weather history database for the weather conditions in past years. The results will help you decide how hot, cold, wet, or windy it might be!

Date:

Astronomy

Jun. 14, 2013 Rise Set
Actual Time 5:22 AM MDT 8:17 PM MDT
Civil Twilight 4:49 AM MDT 8:49 PM MDT
Nautical Twilight 4:09 AM MDT 9:30 PM MDT
Astronomical Twilight 3:22 AM MDT 10:16 PM MDT
Moon 10:57 AM MDT (6/14) 11:56 PM MDT (6/14)
Length of Visible Light 15h 59m
Length of Day
14h 54m
Waxing Crescent, 31% of the Moon is Illuminated
Jun 14
Waxing Crescent
Jun 16
First Quarter
Jun 23
Full
Jun 29
Last Quarter
Jul 8
New

Hourly Weather History & Observations

Time (MDT) Temp. Dew Point Humidity Pressure Visibility Wind Dir Wind Speed Gust Speed Precip Events Conditions
12:53 AM 66.9 °F 59.0 °F 76% 29.81 in 10.0 mi ESE 16.1 mph - N/A   Clear
1:53 AM 66.9 °F 57.9 °F 73% 29.77 in 10.0 mi SE 12.7 mph - N/A   Clear
2:53 AM 64.9 °F 57.0 °F 75% 29.76 in 10.0 mi South 3.5 mph - N/A   Clear
3:53 AM 68.0 °F 53.1 °F 59% 29.73 in 10.0 mi SSW 13.8 mph - N/A   Clear
4:53 AM 64.9 °F 53.1 °F 65% 29.74 in 10.0 mi SW 12.7 mph - N/A   Clear
5:53 AM 63.0 °F 54.0 °F 72% 29.79 in 10.0 mi SSW 11.5 mph - N/A   Clear
6:53 AM 69.1 °F 55.0 °F 61% 29.76 in 10.0 mi SSW 13.8 mph - N/A   Clear
7:53 AM 79.0 °F 52.0 °F 39% 29.75 in 10.0 mi SW 13.8 mph - N/A   Clear
8:53 AM 84.9 °F 50.0 °F 30% 29.77 in 10.0 mi SW 17.3 mph - N/A   Clear
9:53 AM 87.1 °F 46.0 °F 24% 29.77 in 10.0 mi SW 17.3 mph - N/A   Clear
10:53 AM 91.9 °F 45.0 °F 20% 29.78 in 10.0 mi WNW 13.8 mph 24.2 mph N/A   Clear
11:53 AM 91.9 °F 45.0 °F 20% 29.81 in 10.0 mi NW 16.1 mph 26.5 mph N/A   Clear
12:53 PM 91.0 °F 44.1 °F 20% 29.79 in 10.0 mi NNW 12.7 mph 20.7 mph N/A   Clear
1:53 PM 91.0 °F 44.1 °F 20% 29.75 in 10.0 mi NNE 17.3 mph - N/A   Clear
2:53 PM 84.9 °F 45.0 °F 25% 29.75 in 10.0 mi NNE 12.7 mph - N/A   Clear
3:53 PM 82.9 °F 46.0 °F 27% 29.77 in 10.0 mi East 17.3 mph - N/A   Clear
4:53 PM 81.0 °F 45.0 °F 28% 29.76 in 10.0 mi East 11.5 mph - N/A   Clear
5:53 PM 79.0 °F 43.0 °F 28% 29.77 in 8.0 mi South 32.2 mph 48.3 mph N/A   Partly Cloudy
6:00 PM 80.6 °F 42.8 °F 26% 29.91 in 6.0 mi SSE 36.8 mph 56.4 mph N/A   Haze
6:02 PM 80.6 °F 39.2 °F 23% 29.91 in 1.8 mi SSE 41.4 mph 56.4 mph N/A   Haze
6:12 PM 77.0 °F 46.4 °F 34% 29.94 in 4.0 mi ESE 19.6 mph 54.1 mph 0.00 in Rain Light Rain
6:53 PM 75.0 °F 48.0 °F 38% 29.81 in 10.0 mi ESE 10.4 mph - 0.00 in   Clear
7:53 PM 75.9 °F 48.0 °F 37% 29.84 in 10.0 mi NW 12.7 mph - N/A   Overcast
8:02 PM 73.4 °F 50.0 °F 44% 30.03 in 10.0 mi NW 11.5 mph - N/A   Mostly Cloudy
8:53 PM 71.1 °F 51.1 °F 49% 29.83 in 10.0 mi NNW 12.7 mph - N/A   Mostly Cloudy
9:04 PM 71.6 °F 50.0 °F 46% 30.01 in 10.0 mi NNW 9.2 mph - N/A   Mostly Cloudy
9:53 PM 68.0 °F 51.1 °F 55% 29.83 in 10.0 mi NW 9.2 mph - N/A   Clear
10:53 PM 66.9 °F 51.1 °F 57% 29.79 in 10.0 mi Calm Calm - N/A   Clear
11:53 PM 64.0 °F 52.0 °F 65% 29.79 in 10.0 mi South 9.2 mph - N/A   Clear